STARLINK-11648, 63313

Orbit data source: Space-Track

STARLINK-11648, 63313 is a payload satellite owned by SpaceX/Seattle (US) in LEO that was launched on Tue, 18 Mar 2025 UTC via an FALCON 9 launch vehicle from the Air Force Eastern Test Range (AFETR). Payload-class satellites include a variety of spacecraft equipped with specific instruments for various scientific and technological missions. These include communications satellites like Starlink; space stations such as the ISS; scientific satellites like the Hubble; Earth observation satellites from companies like Planet Labs, Umbra, and HawkEye 360; GPS; miniature CubeSats for education and research; and military/defense satellites.

Loading next visibility...
Identifier
63313, 2025-057G
Orbit
LEO
Country
Flag of USUS
Related business
Manufacturer
SpaceX/Seattle
Mission
Operational Commercial Communications
Bus & Motor
STARLINK V2MD, Unknown motor
Mass
960 kg wet, ~910 kg dry
Launch date (UTC)
2025-03-18 (1 year ago)
Launch vehicle
FALCON 9
Launch site
Air Force Eastern Test Range (AFETR)
Object type
Payload
Rocket body
Debris
Shape & HBR
Box + 2 Pan, 18.1 m
Radar Cross Section
36.964 m², Large (>1 m²)

Expand to show TLE details & history
Last TLE update: 10 hours ago

TLE from 10 hours ago
0 STARLINK-11648
1 63313U 25057G   26127.11128064  .00189185  00000-0  14409-2 0  9998
2 63313  42.9990 272.5760 0001546 304.8214  55.2509 15.70900428 66361
Epoch: 2026-05-07T02:40Z
TLE epoch observation values (Epoch: 2026-05-07T02:40:14.647Z)
Latitude
0.00005°
Longitude
7.55292°
Altitude
355.5 km
Speed
7.698 km/s
True Right ascension
18h 10m 18s
True Declination
0° 00' 00"
Sunlit
Object was in full shadow at epoch
Visualization orbit readout
Latitude
Unknown
Longitude
Unknown
Altitude
Unknown
Speed
Unknown
Apparent Right ascension
Unknown
Apparent Declination
Unknown
Sunlit
N/A
Visualization observer readout
Local Sidereal Time
21:10:09
Azimuth
Unknown
Elevation
Unknown
Doppler factor
Unknown
Orbital elements
Apogee altitude
359.346 km
Perigee altitude
357.263 km
Semi-major axis
6,736.441 km
Eccentricity
0.00015
Inclination
42.999°
RAAN
272.576°
Arg. of periapsis
304.8214°
True anomaly
55.26546°
Mean anomaly
55.2509°
Eccentric anomaly
55.25818°
Mean motion
3.92552 °/min
Orbital period
91.71 mins
BSTAR
0.0014409
Loading maneuver chart data...
Computing Atmospheric mass density...
Loading historical data...
Loading historical data...
Loading historical data...
Loading historical data...
Loading historical data...
Loading historical data...
Loading historical data...

Documentation

Showing up to 5 results
|